Time,TemperatureF,DewpointF,PressureIn,WindDirection,WindDirectionDegrees,WindSpeedMPH,WindSpeedGustMPH,Humidity,HourlyPrecipIn,Conditions,Clouds,dailyrainin,SolarRadiationWatts/m^2,SoftwareType,DateUTC
2013-06-10 00:03:00,63.0,63.0,-100.00,SW,216,3.0,7.0,100,0.25,,,1.72,0.000000,,2013-06-10 04:03:00,
2013-06-10 00:23:00,63.0,62.0,-100.00,SW,220,4.0,12.0,98,0.09,,,1.81,0.000000,,2013-06-10 04:23:00,
2013-06-10 00:33:00,63.0,62.0,-100.00,SW,220,4.0,12.0,98,0.09,,,1.81,0.000000,,2013-06-10 04:33:00,
2013-06-10 00:42:00,63.0,62.0,-100.00,SW,220,4.0,12.0,98,0.09,,,1.81,0.000000,,2013-06-10 04:42:00,
2013-06-10 00:53:00,63.0,62.0,-100.00,SW,220,4.0,12.0,98,0.09,,,1.81,0.000000,,2013-06-10 04:53:00,
2013-06-10 01:02:00,63.0,62.0,-100.00,SW,220,4.0,12.0,98,0.09,,,1.81,0.000000,,2013-06-10 05:02:00,
2013-06-10 01:22:00,63.0,63.0,-100.00,SW,219,4.0,11.0,99,0.53,,,2.34,0.000000,,2013-06-10 05:22:00,
2013-06-10 01:32:00,63.0,63.0,-100.00,SW,219,4.0,11.0,99,0.53,,,2.34,0.000000,,2013-06-10 05:32:00,
2013-06-10 01:42:00,63.0,63.0,-100.00,SW,219,4.0,11.0,99,0.53,,,2.34,0.000000,,2013-06-10 05:42:00,
2013-06-10 01:52:00,63.0,63.0,-100.00,SW,219,4.0,11.0,99,0.53,,,2.34,0.000000,,2013-06-10 05:52:00,
2013-06-10 02:02:00,63.0,63.0,-100.00,SW,219,4.0,11.0,99,0.53,,,2.34,0.000000,,2013-06-10 06:02:00,
2013-06-10 02:32:00,63.0,63.0,-100.00,SSW,211,4.0,12.0,99,0.59,,,2.93,0.000000,,2013-06-10 06:32:00,
2013-06-10 02:42:00,63.0,63.0,-100.00,SSW,211,4.0,12.0,99,0.59,,,2.93,0.000000,,2013-06-10 06:42:00,
2013-06-10 02:53:00,63.0,63.0,-100.00,SSW,211,4.0,12.0,99,0.59,,,2.93,0.000000,,2013-06-10 06:53:00,
2013-06-10 03:02:00,63.0,63.0,-100.00,SSW,211,4.0,12.0,99,0.59,,,2.93,0.000000,,2013-06-10 07:02:00,
2013-06-10 03:22:00,63.0,63.0,-100.00,SW,223,5.0,15.0,100,0.48,,,3.41,0.000000,,2013-06-10 07:22:00,
2013-06-10 03:32:00,63.0,63.0,-100.00,SW,223,5.0,15.0,100,0.48,,,3.41,0.000000,,2013-06-10 07:32:00,
2013-06-10 03:42:00,63.0,63.0,-100.00,SW,223,5.0,15.0,100,0.48,,,3.41,0.000000,,2013-06-10 07:42:00,
2013-06-10 03:52:00,63.0,63.0,-100.00,SW,223,5.0,15.0,100,0.48,,,3.41,0.000000,,2013-06-10 07:52:00,
2013-06-10 04:02:00,63.0,63.0,-100.00,SW,223,5.0,15.0,100,0.48,,,3.41,0.000000,,2013-06-10 08:02:00,
2013-06-10 04:22:00,63.0,63.0,-100.00,SW,216,4.0,13.0,99,0.14,,,3.55,0.000000,,2013-06-10 08:22:00,
2013-06-10 04:32:00,63.0,63.0,-100.00,SW,216,4.0,13.0,99,0.14,,,3.55,0.000000,,2013-06-10 08:32:00,
2013-06-10 04:42:00,63.0,63.0,-100.00,SW,216,4.0,13.0,99,0.14,,,3.55,0.000000,,2013-06-10 08:42:00,
2013-06-10 04:52:00,63.0,63.0,-100.00,SW,216,4.0,13.0,99,0.14,,,3.55,0.000000,,2013-06-10 08:52:00,
2013-06-10 05:02:00,63.0,63.0,-100.00,SW,216,4.0,13.0,99,0.14,,,3.55,0.000000,,2013-06-10 09:02:00,
2013-06-10 05:22:00,62.0,61.0,-100.00,SSW,213,5.0,20.0,98,0.05,,,3.60,0.000000,,2013-06-10 09:22:00,
2013-06-10 05:32:00,62.0,61.0,-100.00,SSW,213,5.0,20.0,98,0.05,,,3.60,0.000000,,2013-06-10 09:32:00,
2013-06-10 05:43:00,62.0,61.0,-100.00,SSW,213,5.0,20.0,98,0.05,,,3.60,0.000000,,2013-06-10 09:43:00,
2013-06-10 05:53:00,62.0,61.0,-100.00,SSW,213,5.0,20.0,98,0.05,,,3.60,0.000000,,2013-06-10 09:53:00,
2013-06-10 06:03:00,62.0,61.0,-100.00,SSW,213,5.0,20.0,98,0.05,,,3.60,0.000000,,2013-06-10 10:03:00,
2013-06-10 06:23:00,62.0,61.0,-100.00,SW,214,4.0,16.0,97,0.00,,,3.60,0.000000,,2013-06-10 10:23:00,
2013-06-10 06:33:00,62.0,61.0,-100.00,SW,214,4.0,16.0,97,0.00,,,3.60,0.000000,,2013-06-10 10:33:00,
2013-06-10 06:42:00,62.0,61.0,-100.00,SW,214,4.0,16.0,97,0.00,,,3.60,0.000000,,2013-06-10 10:42:00,
2013-06-10 06:52:00,62.0,61.0,-100.00,SW,214,4.0,16.0,97,0.00,,,3.60,0.000000,,2013-06-10 10:52:00,
2013-06-10 07:03:00,62.0,61.0,-100.00,SW,214,4.0,16.0,97,0.00,,,3.60,0.000000,,2013-06-10 11:03:00,
2013-06-10 10:22:00,66.0,62.0,-100.00,SW,220,5.0,12.0,86,-99.99,,,3.62,281.000000,,2013-06-10 14:22:00,
2013-06-10 10:32:00,66.0,62.0,-100.00,SW,220,5.0,12.0,86,-99.99,,,3.62,281.000000,,2013-06-10 14:32:00,
2013-06-10 10:42:00,66.0,62.0,-100.00,SW,220,5.0,12.0,86,-99.99,,,3.62,281.000000,,2013-06-10 14:42:00,
2013-06-10 10:52:00,66.0,62.0,-100.00,SW,220,5.0,12.0,86,-99.99,,,3.62,281.000000,,2013-06-10 14:52:00,
2013-06-10 11:03:00,66.0,62.0,-100.00,SW,220,5.0,12.0,86,-99.99,,,3.62,281.000000,,2013-06-10 15:03:00,
2013-06-10 11:22:00,68.0,64.0,-100.00,SW,218,5.0,12.0,87,0.02,,,3.64,321.000000,,2013-06-10 15:22:00,
2013-06-10 11:33:00,68.0,64.0,-100.00,SW,218,5.0,12.0,87,0.02,,,3.64,321.000000,,2013-06-10 15:33:00,
2013-06-10 11:43:00,68.0,64.0,-100.00,SW,218,5.0,12.0,87,0.02,,,3.64,321.000000,,2013-06-10 15:43:00,
2013-06-10 11:53:00,68.0,64.0,-100.00,SW,218,5.0,12.0,87,0.02,,,3.64,321.000000,,2013-06-10 15:53:00,
2013-06-10 12:03:00,68.0,64.0,-100.00,SW,218,5.0,12.0,87,0.02,,,3.64,321.000000,,2013-06-10 16:03:00,
2013-06-10 12:23:00,66.0,61.0,-100.00,WSW,240,3.0,12.0,84,0.03,,,3.67,315.000000,,2013-06-10 16:23:00,
2013-06-10 12:33:00,66.0,61.0,-100.00,WSW,240,3.0,12.0,84,0.03,,,3.67,315.000000,,2013-06-10 16:33:00,
2013-06-10 12:43:00,66.0,61.0,-100.00,WSW,240,3.0,12.0,84,0.03,,,3.67,315.000000,,2013-06-10 16:43:00,
2013-06-10 12:53:00,66.0,61.0,-100.00,WSW,240,3.0,12.0,84,0.03,,,3.67,315.000000,,2013-06-10 16:53:00,
2013-06-10 13:03:00,66.0,61.0,-100.00,WSW,240,3.0,12.0,84,0.03,,,3.67,315.000000,,2013-06-10 17:03:00,
2013-06-10 13:04:00,63.0,59.0,-100.00,SSE,162,2.0,11.0,86,0.45,,,4.11,150.000000,,2013-06-10 17:04:00,
2013-06-10 13:38:00,63.0,59.0,-100.00,SSE,162,2.0,11.0,86,0.45,,,4.11,150.000000,,2013-06-10 17:38:00,
2013-06-10 13:48:00,63.0,59.0,-100.00,SSE,162,2.0,11.0,86,0.45,,,4.11,150.000000,,2013-06-10 17:48:00,
2013-06-10 13:58:00,63.0,59.0,-100.00,SSE,162,2.0,11.0,86,0.45,,,4.11,150.000000,,2013-06-10 17:58:00,
2013-06-10 14:35:00,66.0,60.0,-100.00,SW,216,3.0,6.0,82,0.02,,,4.13,333.000000,,2013-06-10 18:35:00,
2013-06-10 14:48:00,66.0,60.0,-100.00,SW,216,3.0,6.0,82,0.02,,,4.13,333.000000,,2013-06-10 18:48:00,
2013-06-10 14:55:00,66.0,60.0,-100.00,SW,216,3.0,6.0,82,0.02,,,4.13,333.000000,,2013-06-10 18:55:00,
2013-06-10 15:03:00,66.0,60.0,-100.00,SW,216,3.0,6.0,82,0.02,,,4.13,333.000000,,2013-06-10 19:03:00,
2013-06-10 15:33:00,73.0,60.0,-100.00,SW,228,6.0,12.0,63,0.00,,,4.13,958.000000,,2013-06-10 19:33:00,
2013-06-10 15:43:00,73.0,60.0,-100.00,SW,228,6.0,12.0,63,0.00,,,4.13,958.000000,,2013-06-10 19:43:00,
2013-06-10 15:53:00,73.0,60.0,-100.00,SW,228,6.0,12.0,63,0.00,,,4.13,958.000000,,2013-06-10 19:53:00,
2013-06-10 16:03:00,73.0,60.0,-100.00,SW,228,6.0,12.0,63,0.00,,,4.13,958.000000,,2013-06-10 20:03:00,
2013-06-10 16:23:00,74.0,56.0,-100.00,WSW,254,4.0,17.0,54,0.00,,,4.03,837.000000,,2013-06-10 20:23:00,
2013-06-10 16:32:00,74.0,56.0,-100.00,WSW,254,4.0,17.0,54,0.00,,,4.03,837.000000,,2013-06-10 20:32:00,
2013-06-10 16:43:00,74.0,56.0,-100.00,WSW,254,4.0,17.0,54,0.00,,,4.03,837.000000,,2013-06-10 20:43:00,
2013-06-10 16:53:00,74.0,56.0,-100.00,WSW,254,4.0,17.0,54,0.00,,,4.03,837.000000,,2013-06-10 20:53:00,
2013-06-10 17:02:00,74.0,56.0,-100.00,WSW,254,4.0,17.0,54,0.00,,,4.03,837.000000,,2013-06-10 21:02:00,
2013-06-10 17:23:00,73.0,54.0,-100.00,SW,233,4.0,15.0,52,0.00,,,3.54,650.000000,,2013-06-10 21:23:00,
2013-06-10 17:34:00,73.0,54.0,-100.00,SW,233,4.0,15.0,52,0.00,,,3.54,650.000000,,2013-06-10 21:34:00,
2013-06-10 17:43:00,73.0,54.0,-100.00,SW,233,4.0,15.0,52,0.00,,,3.54,650.000000,,2013-06-10 21:43:00,
2013-06-10 17:53:00,73.0,54.0,-100.00,SW,233,4.0,15.0,52,0.00,,,3.54,650.000000,,2013-06-10 21:53:00,
2013-06-10 18:03:00,73.0,54.0,-100.00,SW,233,4.0,15.0,52,0.00,,,3.54,650.000000,,2013-06-10 22:03:00,
2013-06-10 18:33:00,72.0,57.0,-100.00,SW,233,3.0,9.0,60,0.00,,,3.40,261.000000,,2013-06-10 22:33:00,
2013-06-10 18:42:00,72.0,57.0,-100.00,SW,233,3.0,9.0,60,0.00,,,3.40,261.000000,,2013-06-10 22:42:00,
2013-06-10 18:52:00,72.0,57.0,-100.00,SW,233,3.0,9.0,60,0.00,,,3.40,261.000000,,2013-06-10 22:52:00,
2013-06-10 19:03:00,72.0,57.0,-100.00,SW,233,3.0,9.0,60,0.00,,,3.40,261.000000,,2013-06-10 23:03:00,
2013-06-10 19:22:00,71.0,55.0,-100.00,SSW,201,3.0,9.0,57,0.00,,,3.36,158.000000,,2013-06-10 23:22:00,
2013-06-10 19:32:00,71.0,55.0,-100.00,SSW,201,3.0,9.0,57,0.00,,,3.36,158.000000,,2013-06-10 23:32:00,
2013-06-10 19:42:00,71.0,55.0,-100.00,SSW,201,3.0,9.0,57,0.00,,,3.36,158.000000,,2013-06-10 23:42:00,
2013-06-10 19:52:00,71.0,55.0,-100.00,SSW,201,3.0,9.0,57,0.00,,,3.36,158.000000,,2013-06-10 23:52:00,
2013-06-10 20:02:00,71.0,55.0,-100.00,SSW,201,3.0,9.0,57,0.00,,,3.36,158.000000,,2013-06-11 00:02:00,
2013-06-10 20:22:00,63.0,59.0,-100.00,WNW,287,1.0,6.0,88,0.00,,,3.21,48.000000,,2013-06-11 00:22:00,
2013-06-10 20:32:00,63.0,59.0,-100.00,WNW,287,1.0,6.0,88,0.00,,,3.21,48.000000,,2013-06-11 00:32:00,
2013-06-10 20:43:00,63.0,59.0,-100.00,WNW,287,1.0,6.0,88,0.00,,,3.21,48.000000,,2013-06-11 00:43:00,
2013-06-10 20:52:00,63.0,59.0,-100.00,WNW,287,1.0,6.0,88,0.00,,,3.21,48.000000,,2013-06-11 00:52:00,
2013-06-10 21:02:00,63.0,59.0,-100.00,WNW,287,1.0,6.0,88,0.00,,,3.21,48.000000,,2013-06-11 01:02:00,
2013-06-10 21:22:00,60.0,59.0,-100.00,West,263,1.0,5.0,95,0.00,,,2.73,9.000000,,2013-06-11 01:22:00,
2013-06-10 21:33:00,60.0,59.0,-100.00,West,263,1.0,5.0,95,0.00,,,2.73,9.000000,,2013-06-11 01:33:00,
2013-06-10 21:42:00,60.0,59.0,-100.00,West,263,1.0,5.0,95,0.00,,,2.73,9.000000,,2013-06-11 01:42:00,
2013-06-10 21:53:00,60.0,59.0,-100.00,West,263,1.0,5.0,95,0.00,,,2.73,9.000000,,2013-06-11 01:53:00,
2013-06-10 22:02:00,60.0,59.0,-100.00,West,263,1.0,5.0,95,0.00,,,2.73,9.000000,,2013-06-11 02:02:00,
2013-06-10 22:22:00,60.0,60.0,-100.00,West,273,1.0,5.0,99,0.00,,,2.67,0.000000,,2013-06-11 02:22:00,
2013-06-10 22:32:00,60.0,60.0,-100.00,West,273,1.0,5.0,99,0.00,,,2.67,0.000000,,2013-06-11 02:32:00,
2013-06-10 22:43:00,60.0,60.0,-100.00,West,273,1.0,5.0,99,0.00,,,2.67,0.000000,,2013-06-11 02:43:00,
2013-06-10 22:52:00,60.0,60.0,-100.00,West,273,1.0,5.0,99,0.00,,,2.67,0.000000,,2013-06-11 02:52:00,
2013-06-10 23:03:00,60.0,60.0,-100.00,West,273,1.0,5.0,99,0.00,,,2.67,0.000000,,2013-06-11 03:03:00,
2013-06-10 23:22:00,62.0,61.0,-100.00,SW,235,4.0,6.0,98,0.00,,,2.42,0.000000,,2013-06-11 03:22:00,
2013-06-10 23:33:00,62.0,61.0,-100.00,SW,235,4.0,6.0,98,0.00,,,2.42,0.000000,,2013-06-11 03:33:00,
2013-06-10 23:43:00,62.0,61.0,-100.00,SW,235,4.0,6.0,98,0.00,,,2.42,0.000000,,2013-06-11 03:43:00,
2013-06-10 23:53:00,62.0,61.0,-100.00,SW,235,4.0,6.0,98,0.00,,,2.42,0.000000,,2013-06-11 03:53:00,